Regional Weather Roundup
Issued by NWS Northern Indiana

Home | Current Version | Previous Version | Graphics & Text | Print | Product List | Glossary On
Versions: 1 2 3 4 5 6 7 8 9 10 11 12 13 14 15 16 17 18 19 20 21 22 23 24 25 26 27 28 29 30 31 32 33 34 35 36 37 38 39 40 41 42 43 44 45 46 47 48 49 50
000
ASUS43 KIWX 311900
RWRIWX

KIWX WEATHER ROUNDUP
NATIONAL WEATHER SERVICE NORTHERN INDIANA
300 PM EDT THU JUL 31 2014

NOTE: "FAIR" INDICATES FEW OR NO CLOUDS BELOW 12,000 FEET WITH NO
SIGNIFICANT WEATHER AND/OR OBSTRUCTIONS TO VISIBILITY.

* THESE STATIONS ARE NOT UNDER NWS QUALITY CONTROL. THEY ALSO MAY NOT
  REPORT WEATHER SUCH AS PRECIPITATION OR FOG.

INZ001>027-312000-
NORTHERN INDIANA

CITY           SKY/WX    TMP DP  RH WIND       PRES   REMARKS
GARY*          MOSUNNY   82  57  42 W12       30.04F
VALPARAISO     PTSUNNY   80  59  48 SW15G21   30.06S
SOUTH BEND     MOSUNNY   82  55  39 W14       30.05S
ELKHART*       PTSUNNY   81  55  41 W13G18    30.05
GOSHEN         MOSUNNY   81  60  48 W16G23    30.05F
WARSAW*        MOSUNNY   79  59  50 W9        30.06S
ANGOLA*        PTSUNNY   79  59  50 W8        30.05S
FORT WAYNE     MOSUNNY   80  58  46 W12       30.07S
PERU/GRISSOM   SUNNY     80  60  51 W8        30.08S

$$
INZ028>050-312000-
CENTRAL INDIANA

CITY           SKY/WX    TMP DP  RH WIND       PRES   REMARKS
LAFAYETTE      MOSUNNY   80  57  45 W8        30.07F
KOKOMO*        MOSUNNY   81  61  50 W6        30.08S
MUNCIE*        SUNNY     80  53  39 W13       30.09S
INDIANAPOLIS   MOSUNNY   79  58  48 W9        30.09S

$$
MIZ043>046-050>051-056>058-064>065-071>073-077>080-312000-
SOUTHWEST LOWER MICHIGAN

CITY           SKY/WX    TMP DP  RH WIND       PRES   REMARKS
BATTLE CREEK   MOSUNNY   78  58  49 W15       30.04S
BENTON HARBOR  SUNNY     78  57  48 W14       30.05S
COLDWATER*     PTSUNNY   80  59  49 W14       30.04S
HILLSDALE*     MOSUNNY   78  58  49 W10       30.05S
HOLLAND        SUNNY     76  61  59 W10       30.05R
GRAND RAPIDS   MOSUNNY   79  58  48 W17       30.02S
KALAMAZOO      PTSUNNY   80  58  46 W10       30.03F
STURGIS*       MOSUNNY   79  59  50 W9G18     30.04S
THREE RIVERS*  PTSUNNY   79  60  51 W12G17    30.04S

$$
OHZ001>008-015>018-024>025-312000-
NORTHWEST OHIO

CITY           SKY/WX    TMP DP  RH WIND       PRES   REMARKS
DEFIANCE       MOSUNNY   81  55  40 SW8       30.05S
FINDLAY        MOSUNNY   81  57  43 W14       30.05F
TOLEDO EXPRESS PTSUNNY   80  53  39 W12G17    30.04F
TOLEDO METCALF MOSUNNY   80  52  37 SW12G18   30.05F
LIMA           MOSUNNY   80  59  48 SW13      30.08S

$$
&&


USA.gov is the U.S. government's official web portal to all federal, state and local government web resources and services.